XE2WR-3 Weather Reports


time (UTC)temp
C
wind
direction
speed
KPH
gust
KPH
rain 1hr
cm
rain 24hr
cm
rain mn
cm
humidity
%
barometer
mb
20260901140100 26 309 0.0 3.2 0.00 0.00 0.00 66 1015.5
20260901134558 25 78 0.0 3.2 0.00 0.00 0.00 56 1015.4
20260901133106 24 280 0.0 4.8 0.00 0.00 0.00 47 1015.4
20260901131557 24 243 1.6 4.8 0.00 0.00 0.00 47 1015.4
20260901130052 -17 0.0 0.0 0.00 0.00 0.00 1015.3
20260901124547 -17 0.0 0.0 0.00 0.00 0.00 1015.2
20260901123042 -17 0.0 0.0 0.00 0.00 0.00 1015.0
20260901121538 -17 0.0 0.0 0.00 0.00 0.00 1014.8
20260901120039 -17 0.0 0.0 0.00 0.00 0.00 1014.8
20260901114528 -17 0.0 0.0 0.00 0.00 0.00 1014.7
20260901113025 -17 0.0 0.0 0.00 0.00 0.00 1014.5
20260901111521 -17 0.0 0.0 0.00 0.00 0.00 1014.5
20260901110015 -17 0.0 0.0 0.00 0.00 0.00 1014.3
20260901104524 -17 0.0 0.0 0.00 0.00 0.00 1014.3
20260901103009 -17 0.0 0.0 0.00 0.00 0.00 1014.2
20260901101502 -17 0.0 0.0 0.00 0.00 0.00 1014.2
20260901100058 -17 0.0 0.0 0.00 0.00 0.00 1014.3
20260901094555 -17 0.0 0.0 0.00 0.00 0.00 1014.2
20260901093053 24 88 1.6 6.4 0.00 0.00 0.00 52 1014.3
20260901091558 24 92 0.0 8.0 0.00 0.00 0.00 51 1014.5
20260901090050 24 78 6.4 11.3 0.00 0.00 0.00 53 1014.5
20260901084545 24 92 4.8 11.3 0.00 0.00 0.00 54 1014.5
20260901083043 25 60 6.4 14.5 0.00 0.00 0.00 56 1014.6
20260901081540 25 110 3.2 12.9 0.00 0.00 0.00 59 1014.5
20260901080039 25 87 12.9 16.1 0.00 0.00 0.00 60 1014.5
20260901074546 25 70 6.4 14.5 0.00 0.00 0.00 63 1014.4
20260901073034 25 77 8.0 12.9 0.00 0.00 0.00 65 1014.4
20260901071535 25 67 8.0 12.9 0.00 0.00 0.00 67 1014.4
20260901070028 26 69 8.0 12.9 0.00 0.00 0.00 68 1014.5
20260901064527 26 100 6.4 14.5 0.00 0.00 0.00 69 1014.6
20260901063025 26 82 12.9 17.7 0.00 0.00 0.00 69 1014.4
20260901061521 26 60 9.7 19.3 0.00 0.00 0.00 70 1014.6
20260901060022 26 64 8.0 16.1 0.00 0.00 0.00 70 1014.6
20260901054519 27 74 8.0 17.7 0.00 0.00 0.00 69 1014.7
20260901053019 27 73 14.5 24.1 0.00 0.00 0.00 69 1014.6
20260901051516 27 85 17.7 27.4 0.00 0.00 0.00 68 1014.4
20260901050016 27 103 14.5 22.5 0.00 0.00 0.00 67 1014.2
20260901044515 28 107 9.7 22.5 0.00 0.00 0.00 66 1014.1
20260901043020 28 93 12.9 27.4 0.00 0.00 0.00 66 1014.1
20260901041514 28 71 14.5 25.7 0.00 0.00 0.00 65 1014.3
20260901040013 28 89 17.7 29.0 0.00 0.00 0.00 65 1014.4
20260901034512 28 69 17.7 29.0 0.00 0.00 0.00 63 1014.2
20260901033012 29 71 14.5 25.7 0.00 0.00 0.00 62 1014.0
20260901031520 29 109 24.1 38.6 0.00 0.00 0.00 61 1013.7
20260901030011 30 87 14.5 27.4 0.00 0.00 0.00 59 1013.2
20260901024511 30 91 22.5 35.4 0.00 0.00 0.00 56 1012.8
20260901023021 32 70 12.9 29.0 0.00 0.00 0.00 46 1012.1
20260901021515 32 65 3.2 6.4 0.00 0.00 0.00 45 1011.9
20260901020020 32 127 0.0 4.8 0.00 0.00 0.00 43 1011.7
20260901014511 32 78 1.6 6.4 0.00 0.00 0.00 43 1011.6
20260901013021 32 107 4.8 11.3 0.00 0.00 0.00 44 1011.6
20260901011513 32 77 0.0 8.0 0.00 0.00 0.00 45 1011.3
20260901010007 32 65 6.4 11.3 0.00 0.00 0.00 44 1011.2
20260901004505 33 124 4.8 9.7 0.00 0.00 0.00 45 1011.2
20260901003004 33 92 8.0 11.3 0.00 0.00 0.00 44 1011.1
20260901001508 33 122 6.4 11.3 0.00 0.00 0.00 45 1011.1
20260901000001 33 91 8.0 16.1 0.00 0.00 0.00 44 1011.1
20260831234501 33 54 3.2 12.9 0.00 0.00 0.00 45 1011.2
20260831233059 33 86 4.8 16.1 0.00 0.00 0.00 45 1011.2
20260831231557 33 65 9.7 12.9 0.00 0.00 0.00 46 1011.3
20260831230057 33 56 3.2 11.3 0.00 0.00 0.00 47 1011.3
20260831224557 32 146 6.4 14.5 0.00 0.00 0.00 47 1011.3
20260831223054 32 84 4.8 11.3 0.00 0.00 0.00 46 1011.4
20260831221600 32 137 6.4 12.9 0.00 0.00 0.00 46 1011.5
20260831220053 32 60 11.3 19.3 0.00 0.00 0.00 45 1011.5
20260831214556 32 104 8.0 16.1 0.00 0.00 0.00 44 1011.9
20260831213052 33 93 8.0 16.1 0.00 0.00 0.00 46 1012.2
20260831211543 32 82 11.3 14.5 0.00 0.00 0.00 45 1012.4
20260831210040 32 71 11.3 12.9 0.00 0.00 0.00 41 1012.8
20260831204542 33 60 9.7 17.7 0.00 0.00 0.00 42 1012.8
20260831203043 33 100 8.0 20.9 0.00 0.00 0.00 44 1012.9
20260831201535 33 22 11.3 20.9 0.00 0.00 0.00 44 1013.1
20260831200035 33 59 8.0 16.1 0.00 0.00 0.00 46 1013.2
20260831194530 32 94 4.8 19.3 0.00 0.00 0.00 47 1013.5
20260831193027 32 78 6.4 16.1 0.00 0.00 0.00 49 1013.7
20260831191541 32 86 11.3 14.5 0.00 0.00 0.00 50 1013.8
20260831190025 32 73 9.7 19.3 0.00 0.00 0.00 50 1014.0
20260831184525 32 84 9.7 16.1 0.00 0.00 0.00 53 1014.2
20260831183024 32 131 6.4 19.3 0.00 0.00 0.00 56 1014.3
20260831181524 32 12 0.0 12.9 0.00 0.00 0.00 54 1014.3
20260831180024 32 68 3.2 12.9 0.00 0.00 0.00 53 1014.5
20260831174521 32 37 1.6 14.5 0.00 0.00 0.00 54 1014.7
20260831173020 32 120 1.6 9.7 0.00 0.00 0.00 55 1014.8
20260831171518 31 23 1.6 11.3 0.00 0.00 0.00 59 1015.0
20260831170023 32 352 0.0 3.2 0.00 0.00 0.00 60 1015.0
20260831164513 31 29 0.0 6.4 0.00 0.00 0.00 63 1015.2
20260831163012 30 101 0.0 6.4 0.00 0.00 0.00 67 1015.3
20260831161509 30 49 0.0 6.4 0.00 0.00 0.00 67 1015.3
20260831160008 29 27 0.0 8.0 0.00 0.00 0.00 69 1015.3
20260831154506 29 51 3.2 6.4 0.00 0.00 0.00 69 1015.3
20260831153009 28 36 0.0 8.0 0.00 0.00 0.00 69 1015.2
20260831151505 27 56 4.8 9.7 0.00 0.00 0.00 70 1015.2
20260831150005 28 54 1.6 6.4 0.00 0.00 0.00 69 1015.2
20260831144503 28 44 0.0 4.8 0.00 0.00 0.00 69 1015.3
20260831143104 28 271 0.0 1.6 0.00 0.00 0.00 70 1015.3
20260831141600 27 272 0.0 3.2 0.00 0.00 0.00 69 1015.1